C/2022 T1 ( Lemmon )

Japanese version
Home page
Updated on August 27, 2023

---------------------------------------------------------------------

* Profile

Discovery Date October 3, 2022
Magnitude 21.2 mag
Discoverer Mt. Lemmon Survey

* Pictures

* Orbital Elements

Epoch 2023 Feb. 25.0 TT = JDT 2460000.5
T 2024 Feb. 17.61179 TT                                 Rudenko
q   3.4445325            (2000.0)            P               Q
z  +0.0001890      Peri.  324.33006     -0.89464553     +0.31049320
 +/-0.0000227      Node   236.92425     -0.26597926     -0.94788335
e   0.9993491      Incl.   22.54318     -0.35897690     -0.07149219
>From 238 observations 2022 Oct. 3-2023 May 24, mean residual 0".5.

* Finding Charts

* Magnitudes Graph

        m1 = 8.7 + 5 log d + 10.0 log r

---------------------------------------------------------------------

The orbital elements are published on M.P.E.C. 2023-K136.
The charts are made with StellaNavigator Ver.10 (AstroArts).
The magnitudes graphs are made with Comet for Windows.

---------------------------------------------------------------------

Copyright(C) Seiichi Yoshida (comet@aerith.net). All rights reserved.